Weather Service Report


749 
ASUS42 KTBW 221510
RWRFL 
FLORIDA REGIONAL WEATHER ROUNDUP
NATIONAL WEATHER SERVICE TAMPA BAY RUSKIN FL
1100 AM EDT TUE JUL 22 2014

NOTE: "FAIR" INDICATES FEW OR NO CLOUDS BELOW 12,000 FEET WITH NO
SIGNIFICANT WEATHER AND/OR OBSTRUCTIONS TO VISIBILITY.


FLZ001>010-012>015-112-114-115-221600-
PANHANDLE FLORIDA
  
CITY           SKY/WX    TMP DP  RH WIND       PRES   REMARKS
PENSACOLA      PTSUNNY   81  73  76 E9        30.05R                  
PENSACOLA NAS  PTSUNNY   81  73  76 VRB6      30.04S                  
MILTON NAS     PTSUNNY   82  72  71 SE7       30.06S                  
CRESTVIEW      PTSUNNY   83  75  77 VRB5      30.08S                  
DUKE FIELD     PTSUNNY   83  77  82 E6        30.06F                  
VALPARAISO     PTSUNNY   82  75  80 E8        30.05F                  
MARY ESTHER    MOSUNNY   83  71  68 SE9       30.05S                  
TRI COUNTY     FAIR      83  72  69 SE6       30.09F                  
PANAMA CITY    FAIR      83  71  67 SE8       30.06F                  
APALACHICOLA   MOSUNNY   85  74  69 CALM      30.07S                  

STATION/POSITION SKY/WX   TEMP    WIND        PRES    WAVE   SWELL
                          AIR SEA DIR/SP/G            HT/PER HT/PER
                          (F)     (DEG/KT/KT) (MB)    (FT/S) (FT/S)
30.1N   87.6W              81 82  160/  4/  6 1017.3R   1/ 4
29.2N   88.2W              82 84  340/  6/  6 1017.5S
28.8N   86.0W              82 83  170/ 10/ 10 1017.4F   1/ 4
PANAMA CITY BEAC           81 80  160/  5/ 10 1018.2R
CAPE SAN BLAS    NOT AVBL
TOWER C                    82      CALM  /  1 1018.1F
28.5N   84.5W              83 85  220/  2/  4 1018.0F   1/ 4

$$
FLZ011-016>038-118-127-128-134-139-239-221600-
NORTH FLORIDA
  
CITY           SKY/WX    TMP DP  RH WIND       PRES   REMARKS
MARIANNA       CLOUDY    81  73  76 E3        30.09R                  
TALLAHASSEE    PTSUNNY   85  68  56 S5        30.09S                  
PERRY          SUNNY     82  72  69 S3        30.09S                  
CROSS CITY       N/A     84  73  69 CALM      30.08F                  
GAINESVILLE    SUNNY     82  73  74 VRB5      30.09S                  
MAYPORT NAS    PTSUNNY   84  74  71 NE9       30.09S                  
JACKSONVILLE   PTSUNNY   85  72  65 N5        30.09S                  
JAX NAS        MOSUNNY   86  72  62 N5        30.10S                  
JAX CRAIG      PTSUNNY   83  72  69 CALM      30.09F                  
JAX CECIL      MOSUNNY   84  72  65 VRB5      30.10S                  
FERNANDINA BEA FAIR      84  73  70 NE3       30.09S                  
ST AUGUSTINE   MOSUNNY   87  74  64 NE9       30.09F HX  95           

STATION/POSITION SKY/WX   TEMP    WIND        PRES    WAVE   SWELL
                          AIR SEA DIR/SP/G            HT/PER HT/PER
                          (F)     (DEG/KT/KT) (MB)    (FT/S) (FT/S)
SHELL POINT                80      90/  2/  4   N/A
KEATON BEACH               80     200/  4/  4 1018.7F
CEDAR KEY                  78     120/  6/  7 1019.0R
FERNANDINA                 80 84  340/  4/  5 1018.5F
30.7N   81.3W                 84                N/A     2/ 8
MAYPORT                    81 84   60/  8/ 10   N/A
31.4N   80.9W              79 84  340/  8/ 10 1019.3R   2/ 8   2/ 8
ST AUGUSTINE               80      10/  9/ 10 1019.7S

$$
FLZ040-043>046-052-053-057-058-063-144-221600-
INTERIOR CENTRAL FLORIDA
  
CITY           SKY/WX    TMP DP  RH WIND       PRES   REMARKS
OCALA          MOSUNNY   84  70  61 CALM      30.09S                  
LEESBURG       SUNNY     85  74  69 SE6       30.09S                  
SANFORD        MOSUNNY   85  74  69 CALM      30.08R                  
ORLANDO EXEC   SUNNY     84  76  76 S5        30.07F                  
ORLANDO INTL   MOSUNNY   85  74  69 SE6       30.07F                  
KISSIMMEE      MOSUNNY   84  75  74 S5        30.08S                  
WINTER HAVEN   PTSUNNY   82  74  76 S6        30.10R                  
LAKELAND       PTSUNNY   82  73  74 S5        30.08S                  
BARTOW         PTSUNNY   81  75  83 SE5       30.09R                  
OKEECHOBEE     PTSUNNY   82  73  74 MISG      30.07S                  

$$
FLZ041-047-054-059-064-141-147-221600-
EAST CENTRAL FLORIDA
  
CITY           SKY/WX    TMP DP  RH WIND       PRES   REMARKS
ORMOND BEACH   MOSUNNY   82  73  74 CALM      30.08                   
DAYTONA BEACH  MOSUNNY   85  75  72 VRB3      30.08S                  
DELAND         SUNNY     84  73  70 CALM      30.09S                  
NEW SMYRNA BEA PTSUNNY   86  75  70 SE8       30.08F HX  95           
JFK SPACE CTR  DRIZZLE   87  81  81 VRB1      30.07S HX 103           
TITUSVILLE     PTSUNNY   84  75  74 CALM      30.07S                  
CAPE CANAVERAL SUNNY     86  75  70 VRB5      30.06S                  
PATRICK AFB    SUNNY     86  75  69 SW5       30.07R                  
MELBOURNE      PTSUNNY   85  74  69 W8        30.06S                  
VERO BEACH     MOSUNNY   82  76  81 SW8       30.07R                  
FT PIERCE      PTSUNNY   85  74  69 S6        30.06S                  
STUART         PTSUNNY   86  75  70 S7        30.07S HX  95           

STATION/POSITION SKY/WX   TEMP    WIND        PRES    WAVE   SWELL
                          AIR SEA DIR/SP/G            HT/PER HT/PER
                          (F)     (DEG/KT/KT) (MB)    (FT/S) (FT/S)
28.5N   80.2W              82 83  150/  4/  4 1018.4F
28.9N   78.5W              83 83  150/ 14/ 16 1018.9R   4/ 5   3/ 7
TRIDENT PIER               85 86  160/  3/  6 1017.6S
28.4N   80.5W                 84                N/A     2/ 8
27.6N   80.2W                 83                N/A     2/ 8

$$
FLZ050-056-061-142-242-148-248-149-249-151-251-155-255-
160-260-221600-
WEST CENTRAL FLORIDA
  
CITY           SKY/WX    TMP DP  RH WIND       PRES   REMARKS
CRYSTAL RIVER  FAIR      82  72  69 CALM      30.08S                  
INVERNESS      PTSUNNY   84  72  65 CALM      30.09S                  
BROOKSVILLE    SUNNY     81  74  79 CALM      30.09S                  
ZEPHYRHILLS    CLOUDY    79  79 100 CALM      30.10R FOG              
CLEARWATER     MOSUNNY   83  76  79 NE7       30.08R                  
TAMPA INTL     PTSUNNY   82  74  76 SW7       30.08R                  
TAMPA EXEC     MOSUNNY   82  73  74 CALM      30.09R                  
PLANT CITY     PTSUNNY   84  75  74 CALM      30.10R                  
MACDILL AFB    SUNNY     84  78  81 VRB2      30.08R HX  95           
ST PETERSBURG  SUNNY     81  75  82 SE3       30.07R                  
SARASOTA       PTSUNNY   84  72  67 SW7       30.06S                  
VENICE         FAIR      84  75  74 SW8       30.08R                  

STATION/POSITION SKY/WX   TEMP    WIND        PRES    WAVE   SWELL
                          AIR SEA DIR/SP/G            HT/PER HT/PER
                          (F)     (DEG/KT/KT) (MB)    (FT/S) (FT/S)
CEDAR KEY                  78     120/  6/  7 1019.0R
28.5N   84.5W              83 85  220/  2/  4 1018.0F   1/ 4
27.3N   84.3W                 86                N/A     1/ 4
CLEARWATER BEACH           82 87  280/  3/  5 1018.3R
MIDDLE TAMPA BAY           83     200/  3/  5 1018.6R
VENICE                     81 88  190/  3/  4 1017.6R

$$
FLZ066-069-070-075>078-162-262-165-265-221600-
SOUTHWEST FLORIDA AND KEYS
  
CITY           SKY/WX    TMP DP  RH WIND       PRES   REMARKS
PUNTA GORDA    MOSUNNY   86  75  69 CALM      30.09R HX  95           
FT MYERS       SUNNY     85  76  74 S7        30.06R                  
SOUTHWEST INTL MOSUNNY   83  75  77 SW7       30.07R                  
NAPLES         MOSUNNY   85  78  80 SW12      30.06R THUNDER HX  96   
MARATHON       CLOUDY    81  75  82 N8        30.07S                  
KEY WEST NAS   CLOUDY    82  73  74 W8        30.09R THUNDER          
KEY WEST INTL  CLOUDY    82  73  74 W13       30.08R                  

STATION/POSITION SKY/WX   TEMP    WIND        PRES    WAVE   SWELL
                          AIR SEA DIR/SP/G            HT/PER HT/PER
                          (F)     (DEG/KT/KT) (MB)    (FT/S) (FT/S)
VENICE                     81 88  190/  3/  4 1017.6R
NAPLES                     84 92  240/ 11/ 13 1018.5R
DRY TORTUGAS               79     190/  5/  6 1018.2R
NW FL BAY                  81     240/ 11/ 13 1018.4R
SAND KEY                   75      90/  7/ 10 1018.8R
SOMBRERO KEY               82     360/  9/ 10 1018.7R
LONG KEY                   80 88  320/ 15/ 18 1019.0R
MOLASSES REEF              84 86  170/  7/  8 1017.9R

$$
FLZ067-068-071>074-168-172>174-221600-
SOUTHEAST FLORIDA 
  
CITY           SKY/WX    TMP DP  RH WIND       PRES   REMARKS
W PALM BEACH   PTSUNNY   85  75  72 S8        30.05S                  
FT LAUDER-EXEC PTSUNNY   87  77  72 SE8       30.06S HX  99           
FT LAUDERDALE  LGT RAIN  81  74  79 S9        30.06S                  
POMPANO BEACH  MOSUNNY   87  77  72 SE13      30.06S HX  99           
PEMBROKE PINES LGT RAIN  79  75  87 SE7       30.08R                  
OPA LOCKA      LGT RAIN  82  74  76 E5        30.08S                  
MIAMI          PTSUNNY   85  75  72 SE7       30.08R                  
WEST KENDALL   PTSUNNY   86  76  71 SE6       30.08R THUNDER HX  96   
HOMESTEAD      TSTM      79  73  83 S2        30.08R                  

STATION/POSITION SKY/WX   TEMP    WIND        PRES    WAVE   SWELL
                          AIR SEA DIR/SP/G            HT/PER HT/PER
                          (F)     (DEG/KT/KT) (MB)    (FT/S) (FT/S)
PORT EVERGLADES            83     170/ 12/ 15 1018.3
VIRGINIA KEY               84 86   CALM  /  1   N/A
LAKE WORTH                 83 85              1017.7F
FOWEY ROCKS                81 85   90/  4/  6 1018.2R
SETTLEMENT POINT           81     200/ 14/ 16 1019.1R

$$


Return to Home page


Western Regional Climate Center, wrcc@dri.edu